AirNav   ProFlight Series 2 Aviation Headset
 
 997 users online  

9PA1 Endless Mountains Health Systems Heliport
Montrose, Pennsylvania, USA

GOING TO MONTROSE?


FAA INFORMATION EFFECTIVE 18 JUNE 2020

Location

FAA Identifier: 9PA1
Lat/Long: 41-50-17.1300N 075-50-14.5000W
41-50.285500N 075-50.241667W
41.8380917,-75.8373611
(estimated)
Elevation: 1774 ft. / 541 m (estimated)
From city: 2 miles E of MONTROSE, PA
Time zone: UTC -4 (UTC -5 during Standard Time)
Zip code: 18801

Heliport Operations

Heliport use: Private use. Permission required prior to landing
Activation date: 06/2018
Control tower: no
ARTCC: NEW YORK CENTER
FSS: WILLIAMSPORT FLIGHT SERVICE STATION
Attendance: 
Wind indicator: lighted
Segmented circle: no

Heliport Communications

WX AWOS-3 at CZG (18 nm NW): 119.075 (607-785-2926)

Nearby radio navigation aids

VOR radial/distance  VOR name  Freq  Var
CFBr155/23.3BINGHAMTON VOR/DME112.2010W
HNKr251/26.9HANCOCK VOR/DME116.8011W
LVZr359/34.6WILKES-BARRE VORTAC111.6010W

Heliport Services

Runway Information

Helipad H1

Dimensions: 40 x 40 ft. / 12 x 12 m
Surface: asphalt, in fair condition
Runway edge lights: PERI
Latitude: 41-50.285500N
Longitude: 075-50.241667W
Elevation: 1774.0 ft.
Traffic pattern: leftleft

Heliport Ownership and Management from official FAA records

Ownership: Privately-owned
Owner: ENDLESS MOUNTAINS HEALTH SYSTEM
100 HOSPITAL DRIVE
MONTROSE, PA 18801
Phone 570-278-3801
Manager: JOHN DECKER
100 HOSPITAL DRIVE
MONTROSE, PA 18801
Phone 570-278-3801

Additional Remarks

FOR CD CTC NEW YORK ARTCC AT 631-468-1425.

Instrument Procedures

There are no published instrument procedures at 9PA1.

Some nearby airports with instrument procedures:

9N3 - Seamans Field Airport (15 nm S)
KCZG - Tri-Cities Airport (18 nm NW)
KBGM - Greater Binghamton Airport/Edwin A Link Field (23 nm N)
N27 - Bradford County Airport (28 nm W)
KAVP - Wilkes-Barre/Scranton International Airport (30 nm S)
 
Loc | Ops | Rwys | IFR | FBO | Links
Com | Nav | Svcs | Stats | Notes
Aerial photo
WARNING: Photo may not be current or correct
Aerial photo of 9PA1 (Endless Mountains Health Systems Heliport)
Photo by David M. Conboy
Photo taken 12-Oct-2018
looking northeast.

Do you have a better or more recent aerial photo of Endless Mountains Health Systems Heliport that you would like to share? If so, please send us your photo.

 
Airport distance calculator
Flying to Endless Mountains Health Systems Heliport? Find the distance to fly.

From to 9PA1

Sunrise and sunset
Times for 11-Jul-2020
 Local
(UTC-4)
 Zulu
(UTC)
Morning civil twilight05:0709:07
Sunrise05:4009:40
Sunset20:3800:38
Evening civil twilight21:1101:11

Current date and time
Zulu (UTC)  11-Jul-2020 18:00:38
Local (UTC-4)  11-Jul-2020 14:00:38
 
METAR
KBGM 
24nm N 
111753Z 18009G16KT 10SM SCT027 BKN035 BKN047 26/20 A2966 RMK AO2 RAE07 SLP031 P0005 60005 T02560200 10272 20217 58014 $
KAVP 
31nm S 
111754Z 22009G15KT 10SM SCT031 SCT043 BKN050 28/21 A2966 RMK AO2 SLP034 T02830211 10294 20233 58015
KITH 
47nm NW 
111656Z 19010G15KT 10SM BKN030 28/22 A2964 RMK AO2 LTG DSNT NW SLP027 T02830217
KMPO 
47nm SE 
111753Z AUTO 19013KT 10SM FEW018 BKN031 25/19 A2974 RMK AO2 SLP057 T02500194 10256 20211 58007 $
TAF
KBGM 
24nm N 
111133Z 1112/1212 22005KT 4SM BR OVC002 FM111400 22008KT P6SM BKN045 TEMPO 1120/1122 5SM TSRA BKN030CB FM112200 22008KT P6SM BKN035 FM120100 24007KT 5SM SHRA OVC019 FM120500 25008KT P6SM SCT025
NOTAMs
Click for the latest NOTAMs
NOTAMs are issued by the DoD/FAA and will open in a separate window not controlled by AirNav.

 

 
 

Would you like to see your business listed on this page?

 If your business provides an interesting product or service to pilots, flight crews, aircraft, or users of the Endless Mountains Health Systems Heliport, you should consider listing it here.  To start the listing process, click on the button below
 
Add a business
 

Other Pages about Endless Mountains Health Systems Heliport

Update a link
 
Copyright © AirNav, LLC. All rights reserved. Privacy Policy  Contact